Location: Artiguedieu
(43.5000°N, 0.5454°E)
Time: 21:25:52
(UTC+00:00)

Vanguard 1 - Pass Details

Date: 29 July 2021
Orbit: 652 x 3831 km, 34.3° (Epoch: 19 September)

Event Time Altitude Azimuth Distance (km) Brightness Sun altitude
Rises 12:06:29 0° 242° (WSW) 3,285 12.9 65.1°
Reaches altitude 10° 12:08:39 10° 234° (SW) 2,542 12.6 65.1°
Maximum altitude 12:14:12 40° 165° (SSE) 1,687 12.6 65.0°
Drops below altitude 10° 12:23:28 10° 101° (E) 4,240 13.5 64.8°
Sets 12:28:12 0° 95° (E) 5,789 14.0 64.6°
